User: anonymous   Login
Location: Prairie State College
(41.5244°N, 87.6382°W)
Time: 19:21:54
(UTC-06:00)
Language:

ARGOS Delta rocket - Orbit

View from above orbital plane
View from above orbital plane
View from above satellite
View from above satellite

Ground track
Ground track

The orbit data is extracted from the following two-line orbital elements,

1 25637U 99008D   15026.84918698  .00000316  00000-0  85397-4 0  6955
2 25637 096.4846 121.3277 0144085 175.3500 296.6685 14.46148799839519
Epoch (UTC): 26 January 2015 20:22:49
Eccentricity: 0.0144085
inclination: 96.4846°
perigee height: 636 km
apogee height: 841 km
right ascension of ascending node: 121.3277°
argument of perigee: 175.3500°
revolutions per day: 14.46148799
mean anomaly at epoch: 296.6685°
orbit number at epoch: 83951

The dashed part of the orbit path shows where the satellite is in the earth's shadow,  

DLR